Regional Weather Roundup
Issued by NWS

Home | Current Version | Previous Version | Text Only | Print | Product List | Glossary On
Versions: 1 2 3 4 5 6 7 8 9 10 11 12 13 14 15 16 17 18 19 20 21 22 23 24 25 26 27 28 29 30 31 32 33 34 35 36 37 38 39 40 41 42 43 44 45 46 47 48 49 50
000
ASUS43 KMKX 230400
RWRWI

WISCONSIN REGIONAL WEATHER ROUNDUP
NATIONAL WEATHER SERVICE MILWAUKEE/SULLIVAN WI
1100 PM CDT MON SEP 22 2014

NOTE: "FAIR" INDICATES FEW OR NO CLOUDS BELOW 12,000 FEET WITH NO
SIGNIFICANT WEATHER AND/OR OBSTRUCTIONS TO VISIBILITY.

WIZ001-002-006>008-014>016-023>028-230500-
NORTHWEST WISCONSIN

CITY           SKY/WX    TMP DP  RH WIND       PRES   REMARKS
SUPERIOR ARPT  CLEAR     54  51  89 SW6       30.14R
ASHLAND        CLEAR     56  51  84 SW7       30.16R
HAYWARD        CLEAR     49  47  93 CALM      30.18R
SIREN          CLEAR     52  50  94 CALM      30.18R
CUMBERLAND     CLEAR     48  46  93 CALM      30.20R
RICE LAKE      CLEAR     50  49  95 CALM      30.21R
CHETEK         CLEAR     49  49  99 CALM      30.20R
LADYSMITH      CLEAR     49  48  95 CALM      30.22R
EAU CLAIRE     CLEAR     50  48  93 CALM      30.20R
MENOMONIE      CLEAR     52  50  93 CALM      30.20S
NEW RICHMOND   CLEAR     51  50  97 SE3       30.19R
OSCEOLA        CLEAR     51  51 100 CALM      30.21R
$$

WIZ003>005-009-010-017-018-230500-
NORTH CENTRAL WISCONSIN

CITY           SKY/WX    TMP DP  RH WIND       PRES   REMARKS
MANITOWISH WTR CLEAR     47  47 100 CALM      30.18R
ARBOR VITAE    CLEAR     52  49  90 CALM      30.19R
WOODRUFF       CLEAR     52  49  90 CALM      30.19R
RHINELANDER    CLEAR     50  48  93 W5        30.20R
EAGLE RIVER    CLEAR     46  46 100 SW3       30.18R
LAND O LAKES   CLEAR     43  43  99 CALM      30.18R
PHILLIPS       CLEAR     47  46  97 CALM      30.20R
TOMAHAWK       CLEAR     47  46  95 CALM      30.21R
MEDFORD        CLEAR     51  49  90 SW3       30.21R
MERRILL        CLEAR     45  44  99 CALM      30.21R
$$

WIZ029-030-035-036-043>047-230500-
CENTRAL WISCONSIN

CITY           SKY/WX    TMP DP  RH WIND       PRES   REMARKS
WAUSAU         CLEAR     53  49  86 CALM      30.20R
MOSINEE        CLEAR     50  50 100 CALM      30.23R
MARSHFIELD     CLEAR     51  49  92 SW3       30.22R
STEVENS POINT  CLEAR     46  45  97 CALM      30.22R
WAUPACA        CLEAR     52  51  95 CALM      30.22R
WAUTOMA        NOT AVBL
WISC RAPIDS    CLEAR     48  47  96 CALM      30.23S
CAMP DOUGLAS   NOT AVBL
$$

WIZ011>013-019>022-031-037>040-048>050-230500-
NORTHEAST WISCONSIN

CITY           SKY/WX    TMP DP  RH WIND       PRES   REMARKS
ANTIGO         CLEAR     51  49  91 W6        30.21R
SHAWANO        CLEAR     55  50  83 CALM      30.20S
OCONTO         CLEAR     48  48 100 CALM      30.18S
STURGEON BAY   CLEAR     55  48  76 SW8       30.19S
GREEN BAY      CLEAR     51  49  92 SW3       30.20S
MANITOWOC      NOT AVBL
APPLETON       CLEAR     52  48  87 W7        30.22R
CLINTONVILLE   CLEAR     48  46  93 CALM      30.21S
OSHKOSH        CLEAR     52  49  89 SW6       30.22R
$$

WIZ032>034-041-042-053>061-230500-
SOUTHWEST WISCONSIN

CITY           SKY/WX    TMP DP  RH WIND       PRES   REMARKS
LA CROSSE      CLEAR     53  50  89 SE6       30.21S
SPARTA         CLEAR     46  46 100 CALM      30.24R
VIROQUA        CLEAR     55  49  81 S5        30.23S
BOSCOBEL       CLEAR     49  46  90 CALM      30.25R FOG
PRAIRIE DU CHI CLEAR     51  49  92 CALM      30.24R
PLATTEVILLE    CLEAR     54  47  77 S6        30.26S
$$

WIZ056-057-062-063-064-067-068-230500-
SOUTH CENTRAL WISCONSIN

CITY           SKY/WX    TMP DP  RH WIND       PRES   REMARKS
REEDSBURG      CLEAR     51  50  98 CALM      30.24R
BARABOO/DELLS  CLEAR     51  47  87 S3        30.24R
LONE ROCK      NOT AVBL
MINERAL POINT  CLEAR     55  48  76 S3        30.25R
MADISON        CLEAR     51  49  92 CALM      30.24R
MIDDLETON      CLEAR     48  47  98 CALM      30.25R
WATERTOWN      CLEAR     47  47  97 CALM      30.24R
MONROE         CLEAR     55  46  71 SW7       30.26R
JANESVILLE     CLEAR     52  45  76 CALM      30.25S
$$

WIZ051-052-058>065-066-070>072-230500-
SOUTHEAST WISCONSIN

CITY           SKY/WX    TMP DP  RH WIND       PRES   REMARKS
MILWAUKEE      CLEAR     56  47  71 S3        30.25R
WAUKESHA       CLEAR     50  45  81 CALM      30.25R
MILWAUKEE/TIMM CLEAR     52  46  82 CALM      30.25R
RACINE         CLEAR     52  47  83 SW5       30.26R
BURLINGTON     CLEAR     45  45  99 CALM      30.25R
KENOSHA        CLEAR     50  47  89 SW3       30.26R
FOND DU LAC    CLEAR     55  49  80 SW6       30.23R
SHEBOYGAN      CLEAR     50  47  89 S3        30.22R
WEST BEND      CLEAR     50  46  87 CALM      30.23S
JUNEAU         CLEAR     52  49  89 S3        30.24S
$$

LSZ147-162-230500-
LAKE SUPERIOR

STATION/POSITION TIME  TEMP    WIND        PRES    WAVE
                       AIR SEA DIR/SP/G            HT/PER
                 (UTC) (F)     (DEG/KT/KT) (MB)    (FT/S)
W MID LAKE BUOY  0250   54 48  240/ 12/ 12 1018.4R   2/ 4
DEVILS ISLAND    0300   61     240/ 17/ 18 1019.5R
PORT WING        0340   60     190/  8/  9 1020.3R
SAXON HARBOR     0300   59     200/  6/  9 1020.3S
$$

LMZ867-665-643>646-230500-
LAKE MICHIGAN

STATION/POSITION TIME  TEMP    WIND        PRES    WAVE
                       AIR SEA DIR/SP/G            HT/PER
                 (UTC) (F)     (DEG/KT/KT) (MB)    (FT/S)
CHAMBERS ISLAND  0340   58     200/  5/  9 1021.7R
S GREEN BAY BUOY 0330   60                 1023.0R
N MID LAKE BUOY  0250   58 57  220/ 16/ 17 1020.9R   3/ 4
NORTHPORT PIER   0300   58     230/  3/  6 1021.3R
KEWAUNEE LAKESHO 0300   54     250/  1/  2 1021.4R
SHEBOYGAN LAKESH 0300   57 52  210/  4/  4 1023.5R
PORT WASHINGTON  0340   55     270/  4/  4 1024.0R
ATWATER BUOY     0300   59     210/  6/  6 1024.5R
S MID LAKE BUOY  0250   61 62  190/ 12/ 14 1024.4R   1/ 3
KENOSHA   LAKESH 0300   58     230/  6/  7 1024.0R
$$

TC  - TEMPERATURE IN CELSIUS
VSB - VISIBILITY IN STATUTE MILES
WCI - WIND CHILL INDEX
HX  - HEAT INDEX



USA.gov is the U.S. government's official web portal to all federal, state and local government web resources and services.